Location: Unspecified
(58.9933°N, 5.6375°E)
Time: 02:19:06
(UTC+02:00)

Cosmos 2058 - Visible Passes

Search period start: 23 September 2014 00:00
Search period end: 03 October 2014 00:00
Orbit: 570 x 594 km, 82.5° (Epoch: 22 September)

Date Brightness Start Highest point End Pass type
(mag) Time Alt. Az. Time Alt. Az. Time Alt. Az.
23 Sep 4.0 21:30:48 10° NNW 21:34:49 46° W 21:38:49 10° SSW visible
24 Sep 4.5 21:36:38 10° NNW 21:40:29 36° W 21:44:19 10° SSW visible
25 Sep 3.2 20:05:06 10° N 20:09:10 47° ENE 20:13:14 10° SE visible
25 Sep 5.0 21:42:31 10° NNW 21:46:07 28° W 21:49:43 10° SSW visible
26 Sep 3.0 20:10:47 10° N 20:14:57 61° ENE 20:19:07 10° SSE visible
26 Sep 5.4 21:48:27 10° NW 21:51:44 23° W 21:55:01 10° SW visible
27 Sep 2.9 20:16:30 10° NNW 20:20:43 78° ENE 20:24:55 10° SSE visible
27 Sep 5.7 21:54:27 10° NW 21:57:19 18° W 22:00:11 10° SW visible
28 Sep 3.1 20:22:14 10° NNW 20:26:26 82° WSW 20:30:39 10° S visible
28 Sep 6.0 22:00:36 10° NW 22:02:53 14° W 22:05:10 10° WSW visible
29 Sep 3.5 20:27:59 10° NNW 20:32:09 63° W 20:36:19 10° S visible
29 Sep 6.2 22:07:04 10° WNW 22:08:25 11° WNW 22:09:45 10° W visible
30 Sep 4.0 20:33:46 10° NNW 20:37:49 49° W 20:41:53 10° S visible
01 Oct 4.5 20:39:34 10° NNW 20:43:29 38° W 20:47:23 10° SSW visible
02 Oct 5.1 20:45:25 10° NNW 20:49:06 30° W 20:52:48 10° SSW visible
